EW7347 Weather Reports


time (UTC)temp
F
wind
direction
speed
knots
gust
knots
rain 1hr
in
rain 24hr
in
rain mn
in
humidity
%
barometer
mb
20260502160242 68 269 0.0 0.0 0.00 0.00 0.00 54 1010.9
20260502151908 68 146 0.0 0.0 0.00 0.00 0.00 55 1011.6
20260502150807 68 136 0.0 0.0 0.00 0.00 0.00 53 1011.7
20260502150300 68 119 0.0 0.0 0.00 0.00 0.00 53 1011.8
20260502130638 71 60 0.0 0.0 0.00 0.00 0.00 51 1013.3
20260502130118 71 265 0.0 0.0 0.00 0.00 0.00 52 1013.5
20260502122753 68 273 0.0 6.1 0.00 0.00 0.00 56 1013.7
20260502122236 68 273 0.0 1.7 0.00 0.00 0.00 54 1013.8
20260502121737 67 266 0.0 0.0 0.00 0.00 0.00 56 1013.8
20260502121245 66 272 0.0 1.7 0.00 0.00 0.00 56 1013.8
20260502120752 66 295 0.0 0.0 0.00 0.00 0.00 57 1014.0
20260502120236 67 317 0.0 0.9 0.00 0.00 0.00 55 1014.0
20260502115737 67 333 0.0 0.0 0.00 0.00 0.00 54 1014.1
20260502115231 67 259 0.0 0.0 0.00 0.00 0.00 56 1014.3
20260502114721 67 269 0.0 6.1 0.00 0.00 0.00 57 1014.4
20260502114226 67 267 0.0 0.0 0.00 0.00 0.00 55 1014.5
20260502113103 67 258 0.0 0.0 0.00 0.00 0.00 56 1014.5
20260502112547 66 268 0.0 0.0 0.00 0.00 0.00 57 1014.5
20260502112037 66 258 0.0 0.0 0.00 0.00 0.00 56 1014.4
20260502111544 65 273 0.0 0.0 0.00 0.00 0.00 60 1014.5
20260502111037 65 252 0.0 0.0 0.00 0.00 0.00 60 1014.6
20260502110533 65 271 0.0 0.0 0.00 0.00 0.00 59 1014.7
20260502110022 65 263 0.0 0.0 0.00 0.00 0.00 61 1015.0
20260502105518 65 265 0.0 2.6 0.00 0.00 0.00 60 1015.0
20260502104959 65 273 0.0 1.7 0.00 0.00 0.00 61 1015.2
20260502104453 65 273 0.0 0.0 0.00 0.00 0.00 58 1015.1
20260502103946 65 276 0.0 0.0 0.00 0.00 0.00 59 1015.0
20260502103444 66 269 0.0 0.9 0.00 0.00 0.00 59 1015.1
20260502102944 66 273 0.0 4.3 0.00 0.00 0.00 59 1015.2
20260502101330 66 279 0.0 0.0 0.00 0.00 0.00 60 1015.0
20260502100814 66 269 0.0 2.6 0.00 0.00 0.00 63 1015.0
20260502100255 65 274 0.0 2.6 0.00 0.00 0.00 61 1015.1
20260502091414 62 265 0.0 0.0 0.00 0.00 0.00 71 1015.7
20260502090914 61 276 0.0 0.0 0.00 0.00 0.00 70 1015.7
20260502071315 52 240 0.0 0.0 0.00 0.00 0.00 94 1016.3
20260502070759 51 282 0.0 0.0 0.00 0.00 0.00 95 1016.3
20260502070259 51 273 0.0 0.0 0.00 0.00 0.00 95 1016.3
20260502065753 51 273 0.0 0.0 0.00 0.00 0.00 95 1016.4
20260502065242 51 273 0.0 0.0 0.00 0.00 0.00 95 1016.3
20260502064740 51 273 0.0 0.0 0.00 0.00 0.00 95 1016.3
20260502064226 51 269 0.0 0.0 0.00 0.00 0.00 95 1016.3
20260502063725 51 269 0.0 0.0 0.00 0.00 0.00 95 1016.3
20260502063205 50 269 0.0 0.0 0.00 0.00 0.00 95 1016.1
20260502062701 50 250 0.0 1.7 0.00 0.00 0.00 95 1016.1
20260502062155 50 265 0.0 0.0 0.00 0.00 0.00 95 1016.1
20260502061657 50 265 0.0 0.0 0.00 0.00 0.00 95 1016.2
20260502061158 50 267 0.0 2.6 0.00 0.00 0.00 95 1016.2
20260502060701 50 264 0.0 1.7 0.00 0.00 0.00 95 1016.2
20260502060157 50 269 0.0 0.0 0.00 0.00 0.00 94 1016.1
20260502054411 49 281 0.0 0.0 0.00 0.00 0.00 94 1016.0
20260502053859 49 281 0.0 0.0 0.00 0.00 0.00 94 1016.1
20260502053400 49 267 0.0 0.0 0.00 0.00 0.00 94 1016.1
20260502052856 49 267 0.0 0.0 0.00 0.00 0.00 94 1016.0
20260502052404 49 267 0.0 0.0 0.00 0.00 0.00 94 1016.0
20260502051235 49 267 0.0 0.0 0.00 0.00 0.00 94 1015.9
20260502050725 49 267 0.0 0.0 0.00 0.00 0.00 93 1015.8
20260502050218 49 269 0.0 0.0 0.00 0.00 0.00 94 1015.9
20260502045702 49 269 0.0 0.9 0.00 0.00 0.00 94 1015.9
20260502045205 49 240 0.0 0.0 0.00 0.00 0.00 94 1015.9
20260502044651 49 254 0.0 0.0 0.00 0.00 0.00 93 1015.9
20260502044150 49 254 0.0 0.0 0.00 0.00 0.00 93 1015.9
20260502043632 49 254 0.0 0.0 0.00 0.00 0.00 93 1015.9
20260502043137 49 254 0.0 0.0 0.00 0.00 0.00 93 1015.9
20260502042632 49 254 0.0 0.0 0.00 0.00 0.00 93 1015.9
20260502042136 49 254 0.0 0.0 0.00 0.00 0.00 93 1015.9
20260502041620 49 254 0.0 0.0 0.00 0.00 0.00 93 1015.9
20260502041115 49 254 0.0 0.0 0.00 0.00 0.00 92 1015.9
20260502040612 49 254 0.0 0.0 0.00 0.00 0.00 92 1015.9
20260502040100 49 268 0.0 0.0 0.00 0.00 0.00 92 1016.0
20260502035551 49 268 0.0 0.0 0.00 0.00 0.00 92 1016.1
20260502035034 49 268 0.0 0.0 0.00 0.00 0.00 92 1016.1
20260502034519 49 268 0.0 0.0 0.00 0.00 0.00 92 1016.2
20260502034021 49 268 0.0 0.0 0.00 0.00 0.00 92 1016.1
20260502033531 49 268 0.0 0.0 0.00 0.00 0.00 92 1016.2
20260502032404 49 268 0.0 0.0 0.00 0.00 0.00 91 1016.3
20260502030634 49 269 0.0 0.0 0.00 0.00 0.00 90 1016.2
20260502030128 50 269 0.0 0.0 0.00 0.00 0.00 90 1016.2
20260502025618 50 269 0.0 0.0 0.00 0.00 0.00 90 1016.3
20260502025110 50 269 0.0 0.0 0.00 0.00 0.00 89 1016.3
20260502024551 50 269 0.0 0.0 0.00 0.00 0.00 89 1016.3
20260502024040 50 269 0.0 0.0 0.00 0.00 0.00 89 1016.4
20260502023528 50 269 0.0 0.0 0.00 0.00 0.00 89 1016.4
20260502023013 50 269 0.0 0.0 0.00 0.00 0.00 89 1016.4
20260502022500 51 269 0.0 0.0 0.00 0.00 0.00 89 1016.4
20260502022007 51 269 0.0 0.0 0.00 0.00 0.00 89 1016.3
20260502021509 51 269 0.0 0.0 0.00 0.00 0.00 88 1016.4
20260502020959 51 269 0.0 0.0 0.00 0.00 0.00 88 1016.3
20260502020504 51 269 0.0 0.0 0.00 0.00 0.00 88 1016.4
20260502015944 51 269 0.0 0.0 0.00 0.00 0.00 88 1016.4
20260502015453 51 269 0.0 0.0 0.00 0.00 0.00 88 1016.4
20260502014938 52 269 0.0 0.0 0.00 0.00 0.00 88 1016.5
20260502014422 52 269 0.0 0.0 0.00 0.00 0.00 88 1016.6
20260502013909 52 269 0.0 0.0 0.00 0.00 0.00 88 1016.7
20260502013404 52 269 0.0 0.0 0.00 0.00 0.00 88 1016.7
20260502012903 52 269 0.0 0.0 0.00 0.00 0.00 87 1016.7
20260502012405 52 269 0.0 0.0 0.00 0.00 0.00 87 1016.8
20260502011902 53 269 0.0 0.0 0.00 0.00 0.00 87 1016.8
20260502010720 53 269 0.0 0.0 0.00 0.00 0.00 87 1016.9
20260502005529 54 279 0.0 0.0 0.00 0.00 0.00 86 1017.0
20260502005028 54 279 0.0 0.9 0.00 0.00 0.00 87 1017.1
20260502004521 54 265 0.0 0.0 0.00 0.00 0.00 87 1017.2
20260502004026 54 265 0.0 0.0 0.00 0.00 0.00 87 1017.2
20260502003529 54 265 0.0 0.9 0.00 0.00 0.00 87 1017.2
20260502003020 54 270 0.0 0.0 0.00 0.00 0.00 88 1017.2
20260502002505 54 293 0.0 0.0 0.00 0.00 0.00 88 1017.3
20260502001952 54 296 0.0 0.0 0.00 0.00 0.00 88 1017.2
20260502001502 54 284 0.0 0.0 0.00 0.00 0.00 88 1017.3
20260502000952 54 232 0.0 0.0 0.00 0.00 0.00 87 1017.3
20260502000440 54 231 0.0 0.0 0.00 0.00 0.00 87 1017.3
20260501235934 54 231 0.0 0.0 0.00 0.00 0.00 87 1017.2
20260501235420 54 231 0.0 0.0 0.00 0.00 0.00 87 1017.2
20260501234904 54 248 0.0 0.0 0.00 0.00 0.00 87 1017.3
20260501233748 55 248 0.0 0.0 0.00 0.00 0.00 86 1017.3
20260501233230 55 248 0.0 0.0 0.00 0.00 0.00 86 1017.3
20260501232734 55 248 0.0 0.0 0.00 0.00 0.00 85 1017.3
20260501232236 55 248 0.0 0.0 0.00 0.00 0.00 85 1017.3
20260501231743 55 248 0.0 0.0 0.00 0.00 0.00 84 1017.3
20260501231224 56 248 0.0 0.0 0.00 0.00 0.00 84 1017.3
20260501230720 56 248 0.0 0.0 0.00 0.00 0.00 84 1017.4
20260501230228 56 248 0.0 0.0 0.00 0.00 0.00 83 1017.4
20260501225733 56 248 0.0 0.0 0.00 0.00 0.00 83 1017.4
20260501225230 56 248 0.0 0.0 0.00 0.00 0.00 83 1017.4
20260501224728 57 248 0.0 0.0 0.00 0.00 0.00 83 1017.4
20260501223606 57 248 0.0 0.0 0.00 0.00 0.00 82 1017.5
20260501223103 57 248 0.0 0.0 0.00 0.00 0.00 82 1017.5
20260501221937 57 248 0.0 0.0 0.00 0.00 0.00 82 1017.3
20260501221434 57 248 0.0 0.0 0.00 0.00 0.00 82 1017.3
20260501220916 57 227 0.0 0.0 0.00 0.00 0.00 82 1017.4
20260501220425 57 227 0.0 0.0 0.00 0.00 0.00 82 1017.4
20260501215915 57 227 0.0 0.0 0.00 0.00 0.00 82 1017.4
20260501215425 57 227 0.0 0.0 0.00 0.00 0.00 82 1017.5
20260501214932 57 221 0.0 0.0 0.00 0.00 0.00 82 1017.5
20260501213134 57 203 0.0 0.0 0.00 0.00 0.00 82 1017.4
20260501212619 57 203 0.0 0.0 0.00 0.00 0.00 82 1017.5
20260501212128 57 203 0.0 0.0 0.00 0.00 0.00 82 1017.3
20260501211627 57 203 0.0 0.0 0.00 0.00 0.00 82 1017.3
20260501211126 57 202 0.0 0.0 0.00 0.00 0.00 82 1017.4
20260501210619 57 202 0.0 0.0 0.00 0.00 0.00 82 1017.4
20260501210115 57 269 0.0 0.0 0.00 0.00 0.00 81 1017.4
20260501205603 57 269 0.0 0.0 0.00 0.00 0.00 81 1017.4
20260501205103 57 269 0.0 0.0 0.00 0.00 0.00 81 1017.4
20260501204604 57 269 0.0 0.0 0.00 0.00 0.00 80 1017.3
20260501204059 57 269 0.0 0.0 0.00 0.00 0.00 80 1017.3
20260501203558 58 269 0.0 0.0 0.00 0.00 0.00 80 1017.3
20260501203101 58 269 0.0 0.0 0.00 0.00 0.00 80 1017.3
20260501201939 58 269 0.0 0.0 0.00 0.00 0.00 79 1017.3
20260501201435 58 270 0.0 0.0 0.00 0.00 0.00 78 1017.2
20260501200937 58 270 0.0 0.0 0.00 0.00 0.00 78 1017.3
20260501195817 59 270 0.0 0.0 0.00 0.00 0.00 77 1017.2
20260501195258 59 270 0.0 0.0 0.00 0.00 0.00 77 1017.1
20260501194757 59 270 0.0 0.0 0.00 0.00 0.00 77 1017.1
20260501194242 60 270 0.0 0.0 0.00 0.00 0.00 77 1017.1
20260501193725 60 270 0.0 0.0 0.00 0.00 0.00 77 1017.0
20260501193206 60 270 0.0 0.0 0.00 0.00 0.00 76 1017.0
20260501192646 60 271 0.0 0.0 0.00 0.00 0.00 76 1016.9
20260501192145 61 265 0.0 0.0 0.00 0.00 0.00 76 1016.9
20260501191652 61 254 0.0 0.9 0.00 0.00 0.00 76 1017.0
20260501191158 61 273 0.0 0.0 0.00 0.00 0.00 75 1017.0
20260501190655 62 279 0.0 0.0 0.00 0.00 0.00 75 1017.0
20260501184906 63 280 0.0 1.7 0.00 0.00 0.00 73 1016.9
20260501184404 63 283 0.0 1.7 0.00 0.00 0.00 73 1016.9
20260501183901 64 265 0.0 0.0 0.00 0.00 0.00 72 1016.8
20260501183355 64 263 0.0 2.6 0.00 0.00 0.00 71 1016.8
20260501182858 64 240 0.0 0.0 0.00 0.00 0.00 70 1016.8
20260501182339 65 262 0.0 0.0 0.00 0.00 0.00 69 1016.8
20260501181839 65 267 0.0 0.0 0.00 0.00 0.00 68 1016.8
20260501181345 65 271 0.0 0.0 0.00 0.00 0.00 67 1016.7
20260501180236 66 276 0.0 5.2 0.00 0.00 0.00 65 1016.6
20260501175728 67 263 0.0 0.0 0.00 0.00 0.00 63 1016.6
20260501174552 69 274 0.0 0.9 0.00 0.00 0.00 59 1016.6
20260501174046 69 259 0.0 1.7 0.00 0.00 0.00 58 1016.6
20260501173554 69 269 0.0 2.6 0.00 0.00 0.00 59 1016.5
20260501173040 69 282 0.0 0.0 0.00 0.00 0.00 59 1016.5
20260501172037 69 269 0.0 0.0 0.00 0.00 0.00 58 1016.4
20260501171524 70 260 0.0 6.1 0.00 0.00 0.00 57 1016.5
20260501171005 71 279 0.0 5.2 0.00 0.00 0.00 56 1016.5
20260501170459 71 267 0.0 1.7 0.00 0.00 0.00 57 1016.4
20260501165955 70 273 0.0 1.7 0.00 0.00 0.00 57 1016.4
20260501165442 70 270 0.0 0.0 0.00 0.00 0.00 58 1016.4
20260501164938 70 263 0.0 7.0 0.00 0.00 0.00 58 1016.3
20260501164440 70 272 0.0 7.8 0.00 0.00 0.00 57 1016.4
20260501163946 72 277 0.0 7.8 0.00 0.00 0.00 55 1016.3
20260501163432 73 281 0.0 7.8 0.00 0.00 0.00 54 1016.2
20260501162930 74 271 0.0 2.6 0.00 0.00 0.00 54 1016.1
20260501162427 74 123 0.0 7.0 0.00 0.00 0.00 53 1016.1
20260501161921 75 257 0.0 7.0 0.00 0.00 0.00 54 1016.0
20260501161424 75 288 0.0 7.0 0.00 0.00 0.00 53 1015.9
20260501160918 75 220 0.0 4.3 0.00 0.00 0.00 53 1015.9